FW1161 Weather Reports


Display with metric or nautical units.
time (UTC)temp
F
wind
direction
speed
MPH
gust
MPH
rain 1hr
in
rain 24hr
in
rain mn
in
humidity
%
barometer
mb
20260504023028 52 294 0.0 0.0 0.00 0.00 0.00 49 1006.0
20260504021551 53 294 0.0 0.0 0.00 0.00 0.00 48 1006.0
20260504020021 53 295 0.0 0.0 0.00 0.00 0.00 46 1006.0
20260504014548 53 295 0.0 0.0 0.00 0.00 0.00 47 1005.9
20260504013018 53 294 0.0 0.0 0.00 0.00 0.00 46 1005.8
20260504011505 54 294 0.0 0.0 0.00 0.00 0.00 45 1005.6
20260504010027 55 295 0.0 1.0 0.00 0.00 0.00 42 1005.4
20260504004555 55 294 0.0 1.0 0.00 0.00 0.00 42 1005.3
20260504003030 56 292 0.0 3.0 0.00 0.00 0.00 41 1005.1
20260504001552 56 292 1.0 3.0 0.00 0.00 0.00 40 1004.9
20260504000037 57 292 1.0 6.0 0.00 0.00 0.00 38 1004.8
20260503234550 58 285 3.0 8.0 0.00 0.00 0.00 37 1004.7
20260503233102 59 302 3.0 10.0 0.00 0.00 0.00 36 1004.6
20260503231529 59 287 5.0 12.0 0.00 0.00 0.00 34 1004.5
20260503224553 60 308 7.0 14.0 0.00 0.00 0.00 33 1004.4
20260503223018 60 270 6.0 16.0 0.00 0.00 0.00 32 1004.3
20260503221601 61 318 4.0 16.0 0.00 0.00 0.00 32 1004.3
20260503220024 60 261 6.0 22.0 0.00 0.00 0.00 32 1004.3
20260503214545 60 309 3.0 16.0 0.00 0.00 0.00 32 1004.3
20260503213014 60 310 6.0 17.0 0.00 0.00 0.00 33 1004.2
20260503211534 60 301 7.0 14.0 0.00 0.00 0.00 33 1004.1
20260503204504 59 326 4.0 15.0 0.00 0.00 0.00 34 1004.3
20260503203103 58 315 7.0 19.0 0.00 0.00 0.00 34 1004.6
20260503201516 58 315 6.0 12.0 0.00 0.00 0.00 35 1004.4
20260503200051 57 313 7.0 18.0 0.00 0.00 0.00 37 1004.6
20260503194521 57 318 9.0 24.0 0.00 0.00 0.00 34 1004.8
20260503193040 57 293 5.0 16.0 0.00 0.00 0.00 35 1004.9
20260503191509 57 299 8.0 17.0 0.00 0.00 0.00 35 1005.1
20260503190039 56 296 4.0 18.0 0.00 0.00 0.00 37 1005.0
20260503184507 56 304 4.0 19.0 0.00 0.00 0.00 40 1005.2
20260503183025 56 290 5.0 23.0 0.00 0.00 0.00 39 1005.4
20260503181549 56 329 5.0 24.0 0.00 0.00 0.00 38 1005.4
20260503180014 55 314 12.0 21.0 0.00 0.00 0.00 36 1005.4
20260503174536 54 320 4.0 13.0 0.00 0.00 0.00 39 1005.5
20260503173006 54 321 8.0 20.0 0.00 0.00 0.00 38 1005.9
20260503171530 53 323 4.0 17.0 0.00 0.00 0.00 42 1005.8
20260503160115 53 27 6.0 16.0 0.00 0.00 0.00 46 1006.3
20260503081529 41 287 0.0 0.0 0.00 0.00 0.00 78 1003.5
20260503071604 43 287 0.0 0.0 0.00 0.00 0.00 70 1003.3
20260503060106 45 287 0.0 0.0 0.00 0.00 0.00 66 1003.5
20260503054517 46 287 0.0 0.0 0.00 0.00 0.00 65 1003.6
20260503053053 46 287 0.0 3.0 0.00 0.00 0.00 64 1003.8
20260503051501 47 287 0.0 2.0 0.00 0.00 0.00 62 1004.0
20260503050104 48 291 1.0 4.0 0.00 0.00 0.00 60 1004.0
20260503044536 48 302 0.0 4.0 0.00 0.00 0.00 59 1004.1
20260503043107 48 311 1.0 5.0 0.00 0.00 0.00 58 1004.2
20260503041519 49 285 3.0 7.0 0.00 0.00 0.00 57 1004.3
20260503040042 49 285 1.0 4.0 0.00 0.00 0.00 56 1004.4
20260503034554 49 304 0.0 6.0 0.00 0.00 0.00 55 1004.4
20260503033007 49 294 0.0 0.0 0.00 0.00 0.00 55 1004.3
20260503031535 50 294 0.0 0.0 0.00 0.00 0.00 53 1004.3
20260503030057 50 296 0.0 6.0 0.00 0.00 0.00 51 1004.3
20260503024518 51 303 1.0 5.0 0.00 0.00 0.00 50 1004.3